Regional Weather Roundup
Issued by NWS

Home | Current Version | Previous Version | Graphics & Text | Print | Product List | Glossary On
Versions: 1 2 3 4 5 6 7 8 9 10 11 12 13 14 15 16 17 18 19 20 21 22 23 24 25 26 27 28 29 30 31 32 33 34 35 36 37 38 39 40 41 42 43 44 45 46 47 48 49 50
066
ASUS45 KBOU 080207
RWRCO

WEATHER ROUNDUP FOR COLORADO
NATIONAL WEATHER SERVICE DENVER/BOULDER CO
700 PM MST WED DEC 07 2016

NOTE: "FAIR" INDICATES FEW OR NO CLOUDS BELOW 12000 FEET WITH NO
SIGNIFICANT WEATHER AND/OR OBSTRUCTIONS TO VISIBILITY.

COZ001>005-013-030-031-080300-
...NORTHWEST COLORADO...

CITY           SKY/WX    TMP DP  RH WIND       PRES   REMARKS
CRAIG          FAIR      -1  -8  72 CALM      30.27R
HAYDEN         FAIR       0  -8  71 CALM      30.24R
MEEKER         FAIR      -2  -7  79 NE6       30.24R WCI -14
MOUNT WERNER   NOT AVBL
STEAMBOAT SPGS FAIR       4  -2  77 SE3       30.22R
WALDEN           N/A     -9 -15  77 SE7       30.16R WCI -24
$$

COZ006>008-011-080300-
...WEST CENTRAL VALLEYS...

CITY           SKY/WX    TMP DP  RH WIND       PRES   REMARKS
GRAND JUNCTION FAIR      24  11  57 NE14      30.24R WCI  12
MONTROSE       FAIR      18   8  65 S7        30.25R WCI   9
EAGLE          CLOUDY    16  -2  45 CALM      30.25R
RIFLE          FAIR      16   7  67 SW6       30.27R WCI   7
DELTA          FAIR      25   9  50 W7        30.24R WCI  17
NUCLA          FAIR      23  -4  30 NW7       30.24R WCI  15
$$

COZ017>023-064>068-080300-
...SOUTHWEST COLORADO...

CITY           SKY/WX    TMP DP  RH WIND       PRES   REMARKS
DURANGO        FAIR      22  -1  36 SW9       30.13R WCI  12
CORTEZ         FAIR      24   4  42 CALM      30.19R
PAGOSA SPRINGS FAIR      17  -2  43 CALM      30.13R
TELLURIDE      FAIR       9  -1  65 SE6       30.12R WCI  -1
WOLF CREEK PAS FAIR       1  -4  78 S24G31    30.02S WCI -22
$$

COZ009-010-012-014-032>034-037-058>063-080300-
...CENTRAL COLORADO...

CITY           SKY/WX    TMP DP  RH WIND       PRES   REMARKS
ASPEN          CLOUDY    10   6  84 SW3       30.15R
BUENA VISTA    FAIR      11  -2  56 NW9       30.12R WCI  -2
COPPER MTN     CLOUDY     0  -9  65 MISG      29.94R
BERTHOUD PASS  CLOUDY   -13 -24  58 MISG      29.86S HAZE
COTTONWOOD PAS FAIR      10  -8  44 W9        30.04R WCI  -2
GUNNISON       CLOUDY    11  -1  58 NW7       30.16R WCI   0
KREMMLING      FAIR       5  -4  66 S5        30.21R WCI  -4
LEADVILLE      LGT SNOW   1  -4  79 NE6       30.04R WCI -10
MONARCH PASS   CLOUDY    -2  -8  78 W25G31    30.05R WCI -27
SALIDA         FAIR      15  -2  48 SE6       30.22R WCI   6
SUNLIGHT       FAIR     N/A N/A N/A SW7       30.08R
WILKERSON PASS FAIR       0 -11  60 W6        30.00R WCI -12
$$

COZ069>075-080300-
...SAN LUIS VALLEY/SANGRE DE CRISTO MOUNTAINS...

CITY           SKY/WX    TMP DP  RH WIND       PRES   REMARKS
ALAMOSA        FAIR      17  -1  45 N12       30.10R WCI   4
LA VETA PASS   FOG        0  -4  85 S6        30.04R VSB 3/4 WCI -12
SAGUACHE       FAIR      14   0  52 N9        30.12R WCI   2
$$

COZ035-036-038>040-080300-
...NORTHERN COLORADO FRONT RANGE...

CITY           SKY/WX    TMP DP  RH WIND       PRES   REMARKS
DENVER INTL AP FAIR       4  -2  76 N3        30.33R
DMNS CITY PARK   N/A      6   1  82 E5        30.35R WCI  -3
AURORA         PTCLDY     3   0  87 CALM      30.33R
FRONT RANGE AP MOCLDY     3   0  85 NW3       30.34R
ERIE MUNI ARPT FAIR       0  -4  85 S5        30.37R WCI -10
BOULDER MUN AP FAIR       9   5  85 CALM      30.34R
CENTENNIAL     CLOUDY     7   3  84 N5        30.30R WCI  -2
BROOMFIELD     PTCLDY     7   3  85 CALM      30.33R
FORT COLLINS   MOCLDY     9   3  78 S6        30.37R WCI  -1
LONGMONT       CLOUDY     7   3  83 CALM      30.39R
$$

COZ041-046-047-076>085-087-088-080300-
...PIKES PEAK/PALMER DIVIDE AND SOUTHERN FOOTHILLS...

CITY           SKY/WX    TMP DP  RH WIND       PRES   REMARKS
COLO. SPRINGS  LGT SNOW  10   5  80 CALM      30.27R FOG
A. F. ACADEMY  FLURRIES   4  -1  80 N6        30.24R WCI  -7
SCHRIEVER AFB  NOT AVBL
ELLICOTT       LGT RAIN N/A N/A N/A E6          N/A
FALCON         LGT SNOW   6   1  80 N5        30.23R WCI  -2
FORT CARSON    CLOUDY    12   7  79 S8        30.27R WCI   1
LIMON          CLOUDY     8   3  80 NW9       30.34R WCI  -5
MONUMENT HILL  CLOUDY     3   1  92 NW5       30.23R WCI  -6
TRINIDAD       CLOUDY    16   8  71 E6        30.30R WCI   7
$$

COZ042>045-048>051-090-091-080300-
...NORTHEAST COLORADO...

CITY           SKY/WX    TMP DP  RH WIND       PRES   REMARKS
GREELEY ARPT   FAIR       3  -3  76 CALM      30.41R
AKRON          FAIR       0  -5  79 NW12      30.37R WCI -17
BURLINGTON     FAIR       4  -3  73 NW10      30.40R WCI -11
WRAY           NOT AVBL
STERLING       FAIR       3  -4  72 NW12      30.41R WCI -13
HOLYOKE        FAIR      10   1  67 NW7       30.43R WCI   0
FORT MORGAN    FAIR       0  -6  74 NW8       30.40R WCI -14
$$

COZ086-089-092>099-080300-
...SOUTHEAST COLORADO...

CITY           SKY/WX    TMP DP  RH WIND       PRES   REMARKS
PUEBLO         LGT SNOW  17  12  80 E14       30.36R WCI   3
LA JUNTA       CLOUDY    18  12  77 E6        30.40R WCI  10
LAMAR          CLOUDY    16   9  74 E6        30.43R WCI   7
SPRINGFIELD      N/A     15  10  80 N14       30.37R WCI   0
$$




USA.gov is the U.S. government's official web portal to all federal, state and local government web resources and services.